Fairbanks, AK

9:44 PM AKDT on August 25, 2019 (GMT -0800)
Fairbanks International

Weather History for PAFA - January, 1975

Change the Weather History Date:

Saturday, January 18, 1975

  Actual Average Record
Temperature  
Mean Temperature 0 °F -9 °F  
Max Temperature 6 °F 0 °F 38 °F (1965)
Min Temperature -6 °F -16 °F -61 °F (1906)
Degree Days  
Heating Degree Days 65 74  
Month to date heating degree days 1316  
Since 1 July heating degree days 7588  
Cooling Degree Days 0 0  
Month to date cooling degree days 0  
Year to date cooling degree days 0  
Moisture  
Dew Point -9 °F    
Average Humidity 65    
Maximum Humidity 70    
Minimum Humidity 55    
Precipitation  
Precipitation 0.00 in 0.02 in 0.87 in (1937)
Month to date precipitation 0.36  
Year to date precipitation 0.36  
Snow  
Snow 0.00 in 0.30 in 8.60 in (2000)
Month to date snowfall 6.4  
Since 1 July snowfall 44.3  
Snow Depth -    
Sea Level Pressure  
Sea Level Pressure 29.52 in    
Wind  
Wind Speed 3 mph (West)    
Max Wind Speed 9 mph    
Max Gust Speed -    
Visibility 15 miles    
Events      
T = Trace of Precipitation, MM = Missing Value Source: NWS Daily Summary

Daily Weather History Graph

Daily Weather History Graph

Search for Another Location

Airport or City:

Astronomy

Jan. 18, 1975 Rise Set
Actual Time 9:19 AM AHST 2:44 PM AHST
Civil Twilight 8:11 AM AHST 3:53 PM AHST
Nautical Twilight 7:05 AM AHST 4:58 PM AHST
Astronomical Twilight 6:06 AM AHST 5:57 PM AHST
Moon 9:20 AM AHST (1/18) No Moon Set
Length of Visible Light 7h 42m
Length of Day
5h 24m
Waxing Crescent, 34% of the Moon is Illuminated
Jan 18
Waxing Crescent
Jan 20
First Quarter
Jan 27
Full
Feb 2
Last Quarter
Feb 10
New

Hourly Weather History & Observations

Time (AHST) Temp. Windchill Dew Point Humidity Pressure Visibility Wind Dir Wind Speed Gust Speed Precip Events Conditions
12:00 AM 1.9 °F -7.6 °F -7.1 °F 66% 29.61 in 15.0 mi SSW 4.6 mph - N/A   Overcast
1:00 AM - - - N/A% 29.62 in 15.0 mi SSW 3.5 mph - N/A   Mostly Cloudy
2:00 AM -2.0 °F - -11.9 °F 63% 29.63 in 15.0 mi Calm Calm - N/A   Partly Cloudy
3:00 AM -0.0 °F -9.9 °F -9.9 °F 63% 29.63 in 15.0 mi NNE 4.6 mph - N/A   Partly Cloudy
4:00 AM -0.9 °F -12.7 °F -9.0 °F 69% 29.64 in 15.0 mi SW 5.8 mph - N/A   Partly Cloudy
5:00 AM -0.0 °F - -9.9 °F 63% 29.63 in 15.0 mi Calm Calm - N/A   Mostly Cloudy
6:00 AM 1.9 °F - -7.1 °F 66% 29.63 in 15.0 mi Calm Calm - N/A   Overcast
7:00 AM -0.9 °F - -9.9 °F 66% 29.62 in 15.0 mi Calm Calm - N/A   Mostly Cloudy
8:00 AM -0.9 °F - -11.0 °F 62% 29.63 in 40.0 mi Calm Calm - N/A   Partly Cloudy
9:00 AM -5.1 °F - -15.0 °F 62% 29.61 in 80.0 mi Calm Calm - N/A   Partly Cloudy
10:00 AM -6.0 °F - -16.1 °F 62% 29.60 in 20.0 mi Calm Calm - N/A   Scattered Clouds
11:00 AM -5.1 °F -15.8 °F -15.0 °F 62% 29.57 in 60.0 mi NNE 4.6 mph - N/A   Mostly Cloudy
12:00 PM -4.0 °F -12.4 °F -14.1 °F 62% 29.57 in 80.0 mi South 3.5 mph - N/A   Mostly Cloudy
1:00 PM -2.9 °F -15.0 °F -13.0 °F 62% 29.54 in 80.0 mi SSW 5.8 mph - N/A   Overcast
2:00 PM -2.0 °F - -11.9 °F 63% 29.51 in 80.0 mi Calm Calm - N/A   Overcast
3:00 PM -0.0 °F -13.0 °F -9.0 °F 66% 29.50 in 80.0 mi WSW 6.9 mph - N/A   Overcast
4:00 PM 3.0 °F -11.5 °F -9.9 °F 55% 29.47 in 40.0 mi NE 9.2 mph - N/A   Overcast
5:00 PM 5.0 °F - -2.9 °F 70% 29.45 in 15.0 mi Calm Calm - N/A   Overcast
6:00 PM 5.0 °F -4.1 °F -2.9 °F 70% 29.42 in 15.0 mi WNW 4.6 mph - N/A   Mostly Cloudy
7:00 PM 6.1 °F - -2.9 °F 67% 29.39 in 15.0 mi Calm Calm - N/A   Overcast
8:00 PM 6.1 °F -4.3 °F -2.9 °F 67% 29.35 in 15.0 mi North 5.8 mph - N/A   Overcast
9:00 PM 5.0 °F -2.1 °F -2.9 °F 70% 29.32 in 15.0 mi NW 3.5 mph - N/A   Overcast
10:00 PM 3.9 °F - -6.0 °F 64% 29.30 in 15.0 mi Calm Calm - N/A   Unknown
11:00 PM 3.9 °F -3.4 °F -5.1 °F 66% 29.27 in 15.0 mi ENE 3.5 mph - N/A   Partly Cloudy